| time (UTC) | temp C | wind direction | speed KPH | gust KPH | rain 1hr cm | rain 24hr cm | rain mn cm | humidity % | barometer mb |
| 20260906035252 | 26 | 119 | 0.0 | 0.0 | 0.00 | 0.00 | 0.00 | 86 | 1011.5 |
| 20260906034743 | 26 | 119 | 0.0 | 0.0 | 0.00 | 0.00 | 0.00 | 86 | 1011.5 |
| 20260906034235 | 26 | 109 | 0.0 | 0.0 | 0.00 | 0.00 | 0.00 | 86 | 1011.5 |
| 20260906033735 | 26 | 123 | 0.0 | 0.0 | 0.00 | 0.00 | 0.00 | 86 | 1011.5 |
| 20260906033223 | 26 | 123 | 0.0 | 0.0 | 0.00 | 0.00 | 0.00 | 85 | 1011.1 |
| 20260906032716 | 27 | 122 | 0.0 | 0.0 | 0.00 | 0.00 | 0.00 | 85 | 1011.5 |
| 20260906032215 | 27 | 116 | 0.0 | 0.0 | 0.00 | 0.00 | 0.00 | 84 | 1011.1 |
| 20260906031934 | 27 | 129 | 0.0 | 0.0 | 0.00 | 0.00 | 0.00 | 84 | 1011.1 |
| 20260906031157 | 27 | 114 | 0.0 | 0.0 | 0.00 | 0.00 | 0.00 | 83 | 1011.1 |
| 20260906031138 | 27 | 94 | 0.0 | 0.0 | 0.00 | 0.00 | 0.00 | 83 | 1011.1 |
| 20260906030144 | 27 | 117 | 0.0 | 0.0 | 0.00 | 0.00 | 0.00 | 83 | 1011.1 |
| 20260906025638 | 27 | 124 | 0.0 | 0.0 | 0.00 | 0.00 | 0.00 | 83 | 1011.1 |
| 20260906025402 | 27 | 123 | 0.0 | 0.0 | 0.00 | 0.00 | 0.00 | 82 | 1011.1 |
| 20260906024625 | 27 | 123 | 0.0 | 0.0 | 0.00 | 0.00 | 0.00 | 82 | 1010.8 |
| 20260906024119 | 27 | 108 | 0.0 | 0.0 | 0.00 | 0.00 | 0.00 | 82 | 1010.8 |
| 20260906023617 | 27 | 121 | 0.0 | 0.0 | 0.00 | 0.00 | 0.00 | 82 | 1010.8 |
| 20260906023328 | 27 | 123 | 0.0 | 0.0 | 0.00 | 0.00 | 0.00 | 82 | 1010.8 |
| 20260906022600 | 27 | 130 | 0.0 | 0.0 | 0.00 | 0.00 | 0.00 | 82 | 1010.8 |
| 20260906022058 | 27 | 128 | 0.0 | 0.0 | 0.00 | 0.00 | 0.00 | 81 | 1011.1 |
| 20260906021547 | 27 | 129 | 0.0 | 0.0 | 0.00 | 0.00 | 0.00 | 81 | 1010.8 |
| 20260906021054 | 28 | 123 | 0.0 | 0.0 | 0.00 | 0.00 | 0.00 | 80 | 1010.8 |
| 20260906020539 | 28 | 105 | 0.0 | 0.0 | 0.00 | 0.00 | 0.00 | 80 | 1010.4 |
| 20260906020029 | 28 | 124 | 0.0 | 0.0 | 0.00 | 0.00 | 0.00 | 79 | 1010.4 |
| 20260906015521 | 28 | 125 | 0.0 | 0.0 | 0.00 | 0.00 | 0.00 | 78 | 1010.4 |
| 20260906015019 | 28 | 108 | 0.0 | 0.0 | 0.00 | 0.00 | 0.00 | 77 | 1010.0 |
| 20260906014521 | 28 | 91 | 0.0 | 0.0 | 0.00 | 0.00 | 0.00 | 77 | 1010.0 |
| 20260906014003 | 28 | 116 | 0.0 | 0.0 | 0.00 | 0.00 | 0.00 | 77 | 1010.4 |
| 20260906013500 | 28 | 113 | 0.0 | 0.0 | 0.00 | 0.00 | 0.00 | 76 | 1010.0 |
| 20260906012949 | 28 | 122 | 0.0 | 0.0 | 0.00 | 0.00 | 0.00 | 76 | 1009.7 |
| 20260906012444 | 28 | 122 | 0.0 | 0.0 | 0.00 | 0.00 | 0.00 | 75 | 1010.0 |
| 20260906012201 | 28 | 123 | 0.0 | 0.0 | 0.00 | 0.00 | 0.00 | 75 | 1010.0 |
| 20260906011431 | 29 | 122 | 0.0 | 0.0 | 0.00 | 0.00 | 0.00 | 75 | 1009.7 |
| 20260906010924 | 29 | 102 | 0.0 | 0.0 | 0.00 | 0.00 | 0.00 | 74 | 1009.7 |
| 20260906010422 | 29 | 114 | 0.0 | 0.0 | 0.00 | 0.00 | 0.00 | 73 | 1009.7 |
| 20260906005911 | 30 | 117 | 0.0 | 0.0 | 0.00 | 0.00 | 0.00 | 72 | 1009.7 |
| 20260906005405 | 30 | 117 | 0.0 | 0.0 | 0.00 | 0.00 | 0.00 | 71 | 1009.7 |
| 20260906004903 | 30 | 113 | 0.0 | 0.0 | 0.00 | 0.00 | 0.00 | 71 | 1009.4 |
| 20260906004352 | 30 | 121 | 0.0 | 0.0 | 0.00 | 0.00 | 0.00 | 71 | 1009.7 |
| 20260906003851 | 30 | 121 | 0.0 | 0.0 | 0.00 | 0.00 | 0.00 | 69 | 1009.4 |
| 20260906003349 | 30 | 89 | 0.0 | 0.0 | 0.00 | 0.00 | 0.00 | 68 | 1009.4 |
| 20260906002833 | 31 | 128 | 0.0 | 0.0 | 0.00 | 0.00 | 0.00 | 68 | 1009.4 |
| 20260906002326 | 31 | 128 | 0.0 | 0.0 | 0.00 | 0.00 | 0.00 | 67 | 1009.4 |
| 20260906001824 | 31 | 125 | 0.0 | 0.0 | 0.00 | 0.00 | 0.00 | 66 | 1009.7 |
| 20260906001314 | 31 | 124 | 0.0 | 0.0 | 0.00 | 0.00 | 0.00 | 64 | 1009.7 |
| 20260906000808 | 32 | 119 | 0.0 | 0.0 | 0.00 | 0.00 | 0.00 | 63 | 1009.7 |
| 20260906000305 | 32 | 143 | 0.0 | 0.0 | 0.00 | 0.00 | 0.00 | 62 | 1009.7 |
| 20260905235754 | 32 | 243 | 0.0 | 0.0 | 0.00 | 0.00 | 0.00 | 61 | 1009.7 |
| 20260905235249 | 32 | 214 | 0.0 | 3.2 | 0.00 | 0.00 | 0.00 | 61 | 1009.7 |
| 20260905234751 | 32 | 133 | 0.0 | 3.2 | 0.00 | 0.00 | 0.00 | 61 | 1010.0 |
| 20260905234236 | 32 | 187 | 0.0 | 3.2 | 0.00 | 0.00 | 0.00 | 59 | 1009.7 |
| 20260905233729 | 32 | 168 | 0.0 | 0.0 | 0.00 | 0.00 | 0.00 | 59 | 1010.0 |
| 20260905233228 | 32 | 145 | 0.0 | 0.0 | 0.00 | 0.00 | 0.00 | 58 | 1009.7 |
| 20260905232946 | 33 | 144 | 0.0 | 0.0 | 0.00 | 0.00 | 0.00 | 58 | 1010.0 |
| 20260905232209 | 33 | 232 | 0.0 | 0.0 | 0.00 | 0.00 | 0.00 | 56 | 1009.7 |
| 20260905232148 | 33 | 135 | 0.0 | 3.2 | 0.00 | 0.00 | 0.00 | 57 | 1009.7 |
| 20260905231423 | 33 | 135 | 0.0 | 3.2 | 0.00 | 0.00 | 0.00 | 57 | 1009.7 |
| 20260905230653 | 33 | 95 | 0.0 | 3.2 | 0.00 | 0.00 | 0.00 | 55 | 1009.7 |
| 20260905230149 | 33 | 350 | 0.0 | 3.2 | 0.00 | 0.00 | 0.00 | 54 | 1009.7 |
| 20260905225639 | 34 | 107 | 0.0 | 3.2 | 0.00 | 0.00 | 0.00 | 54 | 1009.7 |
| 20260905225132 | 35 | 127 | 0.0 | 12.9 | 0.00 | 0.00 | 0.00 | 53 | 1009.7 |
| 20260905224630 | 35 | 97 | 0.0 | 12.9 | 0.00 | 0.00 | 0.00 | 51 | 1010.0 |
| 20260905224342 | 36 | 199 | 0.0 | 8.0 | 0.00 | 0.00 | 0.00 | 50 | 1009.7 |
| 20260905223612 | 36 | 335 | 0.0 | 8.0 | 0.00 | 0.00 | 0.00 | 49 | 1009.7 |
| 20260905223111 | 37 | 19 | 0.0 | 8.0 | 0.00 | 0.00 | 0.00 | 47 | 1009.7 |
| 20260905222600 | 37 | 119 | 0.0 | 8.0 | 0.00 | 0.00 | 0.00 | 46 | 1009.4 |
| 20260905222053 | 37 | 245 | 4.8 | 8.0 | 0.00 | 0.00 | 0.00 | 46 | 1009.4 |
| 20260905221551 | 38 | 138 | 0.0 | 3.2 | 0.00 | 0.00 | 0.00 | 44 | 1009.4 |
| 20260905221040 | 37 | 139 | 0.0 | 8.0 | 0.00 | 0.00 | 0.00 | 43 | 1009.4 |
| 20260905220533 | 37 | 153 | 0.0 | 12.9 | 0.00 | 0.00 | 0.00 | 44 | 1009.7 |
| 20260905220030 | 38 | 242 | 8.0 | 12.9 | 0.00 | 0.00 | 0.00 | 44 | 1009.7 |
| 20260905215518 | 38 | 125 | 0.0 | 12.9 | 0.00 | 0.00 | 0.00 | 45 | 1009.4 |
| 20260905215011 | 38 | 120 | 0.0 | 16.1 | 0.00 | 0.00 | 0.00 | 45 | 1009.4 |
| 20260905214508 | 38 | 129 | 3.2 | 16.1 | 0.00 | 0.00 | 0.00 | 44 | 1009.4 |
| 20260905214220 | 38 | 131 | 4.8 | 12.9 | 0.00 | 0.00 | 0.00 | 43 | 1009.4 |
| 20260905213450 | 39 | 145 | 0.0 | 8.0 | 0.00 | 0.00 | 0.00 | 42 | 1009.4 |
| 20260905212946 | 39 | 179 | 0.0 | 8.0 | 0.00 | 0.00 | 0.00 | 41 | 1009.4 |
| 20260905212434 | 39 | 355 | 3.2 | 8.0 | 0.00 | 0.00 | 0.00 | 41 | 1009.4 |
| 20260905211927 | 39 | 189 | 3.2 | 8.0 | 0.00 | 0.00 | 0.00 | 40 | 1009.4 |
| 20260905211437 | 40 | 129 | 0.0 | 8.0 | 0.00 | 0.00 | 0.00 | 39 | 1009.4 |
| 20260905210912 | 41 | 152 | 0.0 | 8.0 | 0.00 | 0.00 | 0.00 | 38 | 1009.4 |
| 20260905210405 | 40 | 118 | 0.0 | 8.0 | 0.00 | 0.00 | 0.00 | 39 | 1009.4 |
| 20260905205902 | 40 | 134 | 3.2 | 12.9 | 0.00 | 0.00 | 0.00 | 39 | 1009.4 |
| 20260905205613 | 40 | 131 | 6.4 | 12.9 | 0.00 | 0.00 | 0.00 | 39 | 1009.7 |
| 20260905205109 | 40 | 121 | 3.2 | 12.9 | 0.00 | 0.00 | 0.00 | 39 | 1009.4 |
| 20260905204536 | 40 | 128 | 1.6 | 8.0 | 0.00 | 0.00 | 0.00 | 39 | 1009.7 |
| 20260905204432 | 40 | 148 | 1.6 | 12.9 | 0.00 | 0.00 | 0.00 | 39 | 1009.4 |
| 20260905203321 | 40 | 155 | 0.0 | 8.0 | 0.00 | 0.00 | 0.00 | 39 | 1009.7 |
| 20260905202817 | 40 | 131 | 3.2 | 8.0 | 0.00 | 0.00 | 0.00 | 40 | 1009.7 |
| 20260905202527 | 40 | 136 | 3.2 | 8.0 | 0.00 | 0.00 | 0.00 | 40 | 1010.0 |
| 20260905202247 | 40 | 165 | 0.0 | 3.2 | 0.00 | 0.00 | 0.00 | 40 | 1009.7 |
| 20260905201254 | 40 | 127 | 0.0 | 8.0 | 0.00 | 0.00 | 0.00 | 41 | 1009.7 |
| 20260905200743 | 39 | 227 | 1.6 | 8.0 | 0.00 | 0.00 | 0.00 | 42 | 1009.7 |
| 20260905200234 | 39 | 269 | 6.4 | 8.0 | 0.00 | 0.00 | 0.00 | 42 | 1010.0 |
| 20260905195954 | 38 | 203 | 3.2 | 8.0 | 0.00 | 0.00 | 0.00 | 43 | 1010.0 |
| 20260905195446 | 38 | 227 | 1.6 | 3.2 | 0.00 | 0.00 | 0.00 | 43 | 1010.4 |
| 20260905194713 | 38 | 140 | 0.0 | 3.2 | 0.00 | 0.00 | 0.00 | 44 | 1010.4 |
| 20260905194440 | 38 | 133 | 0.0 | 3.2 | 0.00 | 0.00 | 0.00 | 44 | 1010.4 |
| 20260905193658 | 39 | 180 | 0.0 | 8.0 | 0.00 | 0.00 | 0.00 | 42 | 1010.4 |
| 20260905193151 | 38 | 132 | 0.0 | 8.0 | 0.00 | 0.00 | 0.00 | 44 | 1010.4 |
| 20260905192648 | 39 | 134 | 0.0 | 12.9 | 0.00 | 0.00 | 0.00 | 42 | 1010.4 |
| 20260905192136 | 39 | 130 | 0.0 | 12.9 | 0.00 | 0.00 | 0.00 | 43 | 1010.4 |
| 20260905192123 | 38 | 357 | 0.0 | 8.0 | 0.00 | 0.00 | 0.00 | 43 | 1010.4 |
| 20260905191126 | 38 | 111 | 0.0 | 8.0 | 0.00 | 0.00 | 0.00 | 43 | 1010.8 |
| 20260905190847 | 38 | 122 | 0.0 | 12.9 | 0.00 | 0.00 | 0.00 | 44 | 1011.1 |
| 20260905190115 | 38 | 180 | 1.6 | 12.9 | 0.00 | 0.00 | 0.00 | 43 | 1011.1 |
| 20260905185604 | 39 | 128 | 1.6 | 12.9 | 0.00 | 0.00 | 0.00 | 42 | 1010.8 |
| 20260905185314 | 38 | 126 | 6.4 | 12.9 | 0.00 | 0.00 | 0.00 | 42 | 1010.8 |
| 20260905184545 | 40 | 120 | 0.0 | 12.9 | 0.00 | 0.00 | 0.00 | 40 | 1010.8 |
| 20260905184041 | 40 | 130 | 0.0 | 8.0 | 0.00 | 0.00 | 0.00 | 41 | 1010.8 |
| 20260905183530 | 40 | 173 | 0.0 | 8.0 | 0.00 | 0.00 | 0.00 | 42 | 1011.1 |
| 20260905183021 | 39 | 119 | 1.6 | 8.0 | 0.00 | 0.00 | 0.00 | 43 | 1011.1 |
| 20260905182517 | 40 | 138 | 0.0 | 0.0 | 0.00 | 0.00 | 0.00 | 43 | 1011.1 |
| 20260905182224 | 39 | 123 | 0.0 | 0.0 | 0.00 | 0.00 | 0.00 | 45 | 1011.5 |